This is the latest recevied weather packets stored in our database for station/object SQ7IQO. If no packets are shown the sender has not sent any weather packets the latest 10 day(s).
| Time | Temp. | Humidity | Pressure | Rain* | Wind** | Luminosity | Snow |
|---|---|---|---|---|---|---|---|
| 1787494913 | 17.22° C | - | - | 0 mm | 1.79 m/s, ° | - | - |
| 1787494853 | 17.78° C | - | - | 0 mm | 1.34 m/s, ° | - | - |
| 1787494793 | 17.78° C | - | - | 0 mm | 1.79 m/s, ° | - | - |
| 1787494733 | 17.78° C | - | - | 0 mm | 0.89 m/s, ° | - | - |
| 1787494673 | 17.78° C | - | - | 0 mm | 0.89 m/s, ° | - | - |
| 1787494613 | 17.78° C | - | - | 0 mm | 0.89 m/s, ° | - | - |
| 1787494553 | 17.78° C | - | - | 0 mm | 1.34 m/s, ° | - | - |
| 1787494493 | 17.78° C | - | - | 0 mm | 1.79 m/s, ° | - | - |
| 1787494433 | 18.89° C | - | - | 0 mm | 1.79 m/s, ° | - | - |
| 1787494373 | 19.44° C | - | - | 0 mm | 1.34 m/s, ° | - | - |
| 1787494313 | 18.89° C | - | - | 0 mm | 0.89 m/s, ° | - | - |
| 1787494253 | 18.89° C | - | - | 0 mm | 1.79 m/s, ° | - | - |
| 1787494193 | 18.89° C | - | - | 0 mm | 2.68 m/s, ° | - | - |
| 1787494133 | 19.44° C | - | - | 0 mm | 1.79 m/s, ° | - | - |
| 1787494073 | 18.89° C | - | - | 0 mm | 1.79 m/s, ° | - | - |
| 1787494013 | 18.33° C | - | - | 0 mm | 1.79 m/s, ° | - | - |
| 1787493953 | 18.33° C | - | - | 0 mm | 3.13 m/s, ° | - | - |
| 1787493893 | 18.89° C | - | - | 0 mm | 2.24 m/s, ° | - | - |
| 1787493833 | 19.44° C | - | - | 0 mm | 2.68 m/s, ° | - | - |
| 1787493773 | 19.44° C | - | - | 0 mm | 0.89 m/s, ° | - | - |
| 1787493713 | 20° C | - | - | 0 mm | 1.79 m/s, ° | - | - |
| 1787493653 | 20° C | - | - | 0 mm | 1.34 m/s, ° | - | - |
| 1787493593 | 19.44° C | - | - | 0 mm | 0.89 m/s, ° | - | - |
| 1787493533 | 19.44° C | - | - | 0 mm | 1.79 m/s, ° | - | - |
| 1787493473 | 18.89° C | - | - | 0 mm | 1.34 m/s, ° | - | - |
* Rain latest hour (hover to see other rain measurements)
** Current wind speed in m/s (hover to see current wind gust speed)